BAW185 EGLL-KEWR

Flight info

Callsign BAW185
Flight time N/A
Altitude 38000
Route CPT3G CPT L9 BUCGO DCT FELCA DCT OFSOX DCT BANBA DCT DINIM/M082F390 NATF ALLRY/N0484F400 N468A TUSKY Q475 COPLY DCT BOS DCT NELIE FLOSI4
Aircraft B772/H-SDE2E3FGHIJ5LORVWXY/LB1D1

Departure

Time N/A
Airport London Heathrow Airport (EGLL)

Arrival

Time 2026-05-04 17:00
Airport Newark Liberty International Airport (KEWR)
Time Latitude Longitude Altitude Speed Heading
2026-05-04 16:46 41.00793 -74.54459 5796 ft 239 kts 189°
2026-05-04 16:47 40.97502 -74.54714 5472 ft 233 kts 189°
2026-05-04 16:47 40.94304 -74.54993 5243 ft 232 kts 189°
2026-05-04 16:48 40.89445 -74.55431 4867 ft 234 kts 188°
2026-05-04 16:48 40.87818 -74.55579 4732 ft 235 kts 188°
2026-05-04 16:49 40.84575 -74.55876 4459 ft 233 kts 188°
2026-05-04 16:49 40.81386 -74.56016 4216 ft 231 kts 183°
2026-05-04 16:50 40.78181 -74.55803 3955 ft 230 kts 182°
2026-05-04 16:50 40.74975 -74.55607 3667 ft 231 kts 182°
2026-05-04 16:51 40.72032 -74.54307 3389 ft 234 kts 136°
2026-05-04 16:51 40.71303 -74.52414 3268 ft 235 kts 102°
2026-05-04 16:51 40.71796 -74.48207 3216 ft 242 kts 76°
2026-05-04 16:52 40.72724 -74.43872 3106 ft 248 kts 76°
2026-05-04 16:52 40.73197 -74.41706 3040 ft 244 kts 75°
2026-05-04 16:53 40.74124 -74.37520 2978 ft 231 kts 76°
2026-05-04 16:53 40.75467 -74.31463 3021 ft 232 kts 75°
2026-05-04 16:54 40.75907 -74.29425 2992 ft 236 kts 75°
2026-05-04 16:55 40.77694 -74.21198 2985 ft 230 kts 71°
2026-05-04 16:55 40.79204 -74.17651 2900 ft 221 kts 58°
2026-05-04 16:56 40.80778 -74.14116 2162 ft 223 kts 77°
2026-05-04 16:56 40.79397 -74.09275 1984 ft 180 kts 166°
2026-05-04 16:57 40.78239 -74.09230 2003 ft 165 kts 207°
2026-05-04 16:57 40.76777 -74.11401 1573 ft 152 kts 226°
2026-05-04 16:58 40.74314 -74.13616 1000 ft 139 kts 211°
2026-05-04 16:58 40.73513 -74.14139 812 ft 123 kts 210°
2026-05-04 16:59 40.72103 -74.15034 556 ft 107 kts 212°
2026-05-04 17:00 40.69227 -74.16862 30 ft 110 kts 211°
2026-05-04 17:00 40.68307 -74.17538 27 ft 19 kts 231°
2026-05-04 17:01 40.68303 -74.17721 27 ft 11 kts 337°
2026-05-04 17:01 40.68453 -74.17648 27 ft 12 kts 24°
2026-05-04 17:02 40.68597 -74.17554 27 ft 12 kts 26°
2026-05-04 17:02 40.68744 -74.17462 27 ft 12 kts 26°
2026-05-04 17:03 40.68818 -74.17414 26 ft 12 kts 26°
2026-05-04 17:03 40.68886 -74.17391 27 ft 8 kts 337°
2026-05-04 17:03 40.68931 -74.17466 27 ft 5 kts 329°
2026-05-04 17:04 40.68949 -74.17480 27 ft 0 kts 329°